Location: Ago
(8.4667°N, 4.4167°E)
Time: 14:03:49
(UTC+00:00)

Cosmos 1190 Rocket - Pass Details

Date: 06 June 2020
Orbit: 756 x 780 km, 74.1° (Epoch: 13 July)

Event Time Altitude Azimuth Distance (km) Brightness Sun altitude
Rises 19:00:51 0° 354° (N) 3,225 7.7 -14.7°
Reaches altitude 10° 19:03:15 10° 359° (N) 2,303 6.8 -15.2°
Maximum altitude 19:08:23 57° 77° (ENE) 908 4.1 -16.4°
Enters shadow 19:11:29 24° 147° (SSE) 1,571 5.1 -17.0°
